This demonstration page uses our WeatherBlox Daily Observations layout. Learn more.

Left ArrowRight Arrow

41.86663, -103.66717

Hourly Observations for November 15, 2019

Temp ( °F °C ) Dew Point ( °F °C ) Humidity (%) Winds ( mph kmh ) Pressure ( in mb ) Visibility ( mi km ) Precip ( " mm )
12:53 am 00:53 Clear 31 -0.6 28 -2.2 89 89 E 7 11 30.14 1021 10 16 0.00 0.00
1:53 am 01:53 Clear 29 -1.7 26 -3.3 89 89 E 6 9 30.13 1020 10 16 0.00 0.00
2:53 am 02:53 Clear 27 -2.8 25 -3.9 92 92 Calm 30.14 1021 10 16 0.00 0.00
3:53 am 03:53 Clear 26 -3.3 23 -5 88 88 NNE 6 9 30.14 1021 10 16 0.00 0.00
4:53 am 04:53 Clear 24 -4.4 23 -5 96 96 Calm 30.18 1022 10 16 0.00 0.00
5:53 am 05:53 Clear 25 -3.9 23 -5 92 92 N 3 6 30.19 1022 10 16 0.00 0.00
6:53 am 06:53 Sunny 25 -3.9 23 -5 92 92 NNW 3 6 30.19 1022 10 16 0.00 0.00
7:53 am 07:53 Sunny 30 -1.1 27 -2.8 88 88 Calm 30.18 1022 10 16 0.00 0.00
8:53 am 08:53 Sunny 37 2.8 32 0 82 82 NNW 5 7 30.16 1021 10 16 0.00 0.00
9:53 am 09:53 Sunny 45 7.2 34 1.1 66 66 WNW 3 6 30.13 1020 10 16 0.00 0.00
10:53 am 10:53 Sunny 52 11.1 33 0.6 49 49 Calm 30.09 1019 10 16 0.00 0.00
11:53 am 11:53 Sunny 55 12.8 33 0.6 44 44 Calm 30.06 1018 10 16 0.00 0.00
12:53 pm 12:53 Sunny 64 17.8 27 -2.8 25 25 VRB 3 6 30.01 1016 10 16 0.00 0.00
1:53 pm 13:53 Sunny 66 18.9 29 -1.7 25 25 Calm 29.99 1016 10 16 0.00 0.00
2:53 pm 14:53 Sunny 66 18.9 29 -1.7 25 25 WNW 7 11 29.99 1016 10 16 0.00 0.00
3:53 pm 15:53 Sunny 62 16.7 31 -0.6 31 31 NNW 5 7 30.00 1016 10 16 0.00 0.00
4:53 pm 16:53 Clear 49 9.4 31 -0.6 50 50 Calm 30.05 1018 10 16 0.00 0.00
5:53 pm 17:53 Clear 49 9.4 31 -0.6 50 50 E 5 7 30.04 1017 10 16 0.00 0.00
6:53 pm 18:53 Clear 43 6.1 32 0 65 65 E 6 9 30.06 1018 10 16 0.00 0.00
7:53 pm 19:53 Clear 45 7.2 32 0 61 61 ESE 8 13 30.04 1017 10 16 0.00 0.00
8:53 pm 20:53 Clear 44 6.7 31 -0.6 60 60 Calm 30.02 1017 10 16 0.00 0.00
9:53 pm 21:53 Clear 40 4.4 31 -0.6 70 70 Calm 30.01 1016 10 16 0.00 0.00
10:53 pm 22:53 Clear 35 1.7 30 -1.1 82 82 N 3 6 29.99 1016 10 16 0.00 0.00
11:53 pm 23:53 Clear 34 1.1 28 -2.2 79 79 N 3 6 29.98 1015 10 16 0.00 0.00

Powered by AerisWeather